Flag for U.S.A. Weather past 2 weeks in Hayward, California, U.S.A.

Now
61 °F

Low clouds.


Feels Like: 61 °F
Forecast: 61 / 77 °F
Wind: 6 mph from Northwest

Location: Hayward Air Terminal

Current Time: Jul 4, 2015 at 12:33:15 AM

Latest Report: Jul 3, 2015 at 11:54 PM


Visibility: 10 mi

Pressure: 29.92 "Hg

Humidity: 90%

Dew point: 58 °F

Location of HaywardLocation

Historic Weather in Hayward — Graph

°F

Hayward temperature yesterday

Maximum temperature yesterday: 77 °F (at 1:54 PM)
Minimum temperature yesterday: 60 °F (at 2:54 AM)
Average temperature yesterday: 66 °F

Past Weeks' High & Low Weather Summary

 TemperatureHumidityPressure
High86 °F (Jun 25, 4:54 PM)90% (Jun 20, 10:54 PM)30.10 "Hg (Jun 20, 10:54 PM)
Low53 °F (Jun 19, 4:54 AM)36% (Jun 25, 4:54 PM)29.82 "Hg (Jun 30, 5:54 PM)
Average65 °F71%29.97 "Hg
* Reported Jun 18 10:54 PM — Jul 3 10:54 PM, Hayward, Weather by CustomWeather, © 2015

Note: Actual official high and low records may vary slightly from our data, if they occured in-between our weather recording intervals... More about our weather records

Advertising

Hayward weather history for previous 24 hours

 ConditionsComfort  
Time TempWeatherWind HumidityBarometerVisibility
10:54 PM
Fri, Jul 3
62 °FLow clouds.8 mph86%29.93 "Hg10 mi
9:54 PM62 °FLow clouds.8 mph86%29.92 "Hg10 mi
8:54 PM62 °FPassing clouds.12 mph86%29.91 "Hg10 mi
7:54 PM64 °FPassing clouds.12 mph81%29.91 "Hg10 mi
6:54 PM67 °FSunny.13 mph76%29.90 "Hg10 mi
5:54 PM70 °FSunny.14 mph66%29.90 "Hg10 mi
4:54 PM73 °FSunny.18 mph59%29.90 "Hg10 mi
3:54 PM74 °FSunny.17 mph60%29.90 "Hg10 mi
2:54 PM76 °FSunny.17 mph56%29.92 "Hg10 mi
1:54 PM77 °FSunny.14 mph56%29.93 "Hg10 mi
12:54 PM73 °FSunny.9 mph62%29.96 "Hg10 mi
11:54 AM73 °FSunny.9 mph62%29.97 "Hg10 mi
10:54 AM70 °FSunny.10 mph68%29.98 "Hg10 mi
9:54 AM68 °FSunny.8 mph70%29.98 "Hg10 mi
8:54 AM65 °FPartly sunny.6 mph78%29.98 "Hg10 mi
7:54 AM62 °FOvercast.N/A83%29.98 "Hg10 mi
6:54 AM62 °FLow clouds.7 mph83%29.98 "Hg10 mi
5:54 AM61 °FLow clouds.8 mph87%29.96 "Hg10 mi
4:54 AM61 °FLow clouds.8 mph90%29.95 "Hg10 mi
3:54 AM61 °FLow clouds.6 mph90%29.94 "Hg10 mi
2:54 AM60 °FClear.3 mph90%29.94 "Hg10 mi
1:54 AM61 °FClear.3 mph87%29.96 "Hg10 mi
12:54 AM62 °FClear.5 mph86%29.97 "Hg10 mi
Weather by CustomWeather, © 2015

See weather overviewHow to use our weather pages